Showing default

LAPAN A3, 41603

Orbit data source: Space-Track

LAPAN A3, 41603 is a payload satellite owned by LAPAN (ID) in SSO that was launched on Wed, 22 Jun 2016 UTC via a PSLV-XL launch vehicle from the Sirharikota (SRI). Payload-class satellites include a variety of spacecraft equipped with specific instruments for various scientific and technological missions. These include communications satellites like Starlink; space stations such as the ISS; scientific satellites like the Hubble; Earth observation satellites from companies like Planet Labs, Umbra, and HawkEye 360; GPS; miniature CubeSats for education and research; and military/defense satellites.

Loading next visibility...
Identifier
41603, 2016-040E
Orbit
SSO
Country
Flag of IDID / INDO
Related business
Manufacturer
LAPAN
Mission
Operational Civil Imaging
Bus & Motor
TUBSAT, Unknown motor
Mass
120 kg wet, 120 kg dry
Launch date (UTC)
2016-06-22 (10 years ago)
Launch vehicle
PSLV-XL
Launch site
Sirharikota (SRI)
Object type
Payload
Rocket body
Debris
Shape & HBR
Box, 0.3 m
Radar Cross Section
0.120 m², Medium (>0.1 m² and < 1m²)

Expand to show TLE details & history
Last TLE update: 2 hours ago

TLE from 2 hours ago
0 LAPAN A3
1 41603U 16040E   26127.91629560  .00003442  00000-0  11068-3 0  9993
2 41603  97.1493 125.3955 0011186 150.8286 209.3583 15.32852489548640
Epoch: 2026-05-07T21:59Z
TLE epoch observation values (Epoch: 2026-05-07T21:59:27.939Z)
Latitude
-0.00012°
Longitude
-70.22647°
Altitude
477.099 km
Speed
7.623 km/s
True Right ascension
08h 21m 34s
True Declination
0° 00' 00"
Sunlit
Object was in daylight at epoch
Visualization orbit readout
Latitude
Unknown
Longitude
Unknown
Altitude
Unknown
Speed
Unknown
Apparent Right ascension
Unknown
Apparent Declination
Unknown
Sunlit
N/A
Visualization observer readout
Local Sidereal Time
08:09:42
Azimuth
Unknown
Elevation
Unknown
Doppler factor
Unknown
Orbital elements
Apogee altitude
471.898 km
Perigee altitude
456.591 km
Semi-major axis
6,842.381 km
Eccentricity
0.00112
Inclination
97.1493°
RAAN
125.3955°
Arg. of periapsis
150.8286°
True anomaly
209.29553°
Mean anomaly
209.3583°
Eccentric anomaly
209.32691°
Mean motion
3.83471 °/min
Orbital period
93.88 mins
BSTAR
0.00011068
Loading maneuver chart data...
Computing Atmospheric mass density...

Documentation

Showing up to 5 results
|